Location: Gleizolles
(44.4833°N, 6.7667°E)
Time: 15:21:10
(UTC+00:00)

Vanguard 1 - Pass Details

Date: 26 June 2024
Orbit: 650 x 3826 km, 34.3° (Epoch: 22 July)

Event Time Altitude Azimuth Distance (km) Brightness Sun altitude
Rises 14:09:11 0° 263° (W) 3,830 13.7 52.3°
Reaches altitude 10° 14:12:57 10° 247° (WSW) 2,496 13.0 51.7°
Maximum altitude 14:16:44 19° 202° (SSW) 1,676 12.0 51.1°
Drops below altitude 10° 14:19:58 10° 156° (SSE) 2,066 11.8 50.5°
Sets 14:22:42 0° 137° (SE) 2,949 12.4 50.1°
